Riverside, CA

8:03 PM PDT on August 31, 2016 (GMT -0700)
Wood Streets - SE | | Change Station

Elev 869 ft 33.96 °N, 117.39 °W | Updated 12 seconds ago

Clear
Clear
84.6 °F
Feels Like 85 °F
N
0.0
Wind Variable Wind from East
Gusts 0.0 mph

Today
High -- | Low -- °F
--% Chance of Precip.
Yesterday
High -- | Low -- °F
Precip. -- in
Pressure 29.78 in
Visibility 10.0 miles
Clouds Clear
Heat Index 85 °F
Dew Point 61 °F
Humidity 45%
Rainfall 0.00 in
Snow Depth Not available.
6:22 AM 7:15 PM
Waning Crescent, 0% visible
METAR KRAL 010253Z 27005KT 10SM CLR 29/14 A2983 RMK AO2 SLP084 T02940144 53008
Pressure 29.78 in
Visibility 10.0 miles
Clouds Clear
Heat Index 85 °F
Dew Point 61 °F
Humidity 45%
Rainfall 0.00 in
Snow Depth Not available.
6:22 AM 7:15 PM
Waning Crescent, 0% visible
METAR KRAL 010253Z 27005KT 10SM CLR 29/14 A2983 RMK AO2 SLP084 T02940144 53008

10-Day Weather Forecast

Almanac

Astronomy

Aug. 31, 2016 Rise Set
Actual Time
Civil Twilight
Nautical Twilight
Astronomical Twilight
Moon
Length of Visible Light
Length of Day
Tomorrow will be .
, % of the Moon is Illuminated

Today's Extremes

State Highs State Lows

Community

WunderPhotos

Upload Photos

1,936,291 photos uploaded!

WunderBlog® & News

Nearby

Air Quality

  Air Quality AQ Index Pollutant
Not available.

Snow Depth

Station Depth Elevation

Earthquake Activity

City Distance Mag. Time & Date
Minimum magnitude displayed is 2.5.

Coastal Water Temperatures

Place Temperature

Stations

Nearby Weather Stations

Station Location Temp. Windchill Dew Point Humidity Wind Precip. Elev Updated Type
                   

Watches & Warnings

There are currently no watches in effect.